Regional Weather Roundup
Issued by NWS

Home | Current Version | Previous Version | Graphics & Text | Print | Product List | Glossary On
Versions: 1 2 3 4 5 6 7 8 9 10 11 12 13 14 15 16 17 18 19 20 21 22 23 24 25 26 27 28 29 30 31 32 33 34 35 36 37 38 39 40 41 42 43 44 45 46 47 48 49 50
000
ASUS43 KLSX 301307
RWRMO

WEATHER SUMMARY FOR MISSOURI
NATIONAL WEATHER SERVICE SPRINGFIELD MO
800 AM CDT TUE SEP 30 2014

NOTE: "FAIR" INDICATES FEW OR NO CLOUDS BELOW 12,000 FEET WITH NO
       SIGNIFICANT WEATHER AND/OR OBSTRUCTIONS TO VISIBILITY.
       CURRENT SKY AND/OR WEATHER CONDITIONS ARE NOT AVAILABLE FOR
       CHILLICOTHE AND FARMINGTON.

MOZ001>031-035>038-043-044-053-054-301400-
...NORTHERN AND WESTERN MISSOURI...

CITY           SKY/WX    TMP DP  RH WIND       PRES   REMARKS
KANSAS CTY INT MOCLDY    63  59  87 S8        29.93S
KANSAS C DTWN  CLEAR     66  59  78 CALM      29.92S
LEE`S SUMMIT   CLEAR     65  58  78 S5        29.94R
ST JOSEPH      PTCLDY    59  57  93 CALM      29.92S
CHILLICOTHE      N/A     58  56  93 CALM      29.96R
KIRKSVILLE     FOG       60  59  96 NE7       29.98S VSB 1/4

$$
MOZ066>068-077>081-088>096-101>105-301400-
...SOUTHWEST MISSOURI...

CITY           SKY/WX    TMP DP  RH WIND       PRES   REMARKS
SPRINGFIELD    CLEAR     61  57  87 SE9       29.97R
JOPLIN         CLEAR     62  58  86 S5        29.95S

$$
MOZ032>034-039>042-045>050-055>058-069>072-301400-
...CENTRAL MISSOURI...

CITY           SKY/WX    TMP DP  RH WIND       PRES   REMARKS
COLUMBIA       CLEAR     61  56  83 SE6       29.96S
JEFFERSON CITY FOG       55  55 100 CALM      29.96R VSB<1/4
ROLLA          SUNNY     65  59  81 S7        29.96S
SEDALIA        CLEAR     61  57  87 S6        29.96R
WHITEMAN AFB   CLEAR     58  56  94 S5        29.94S
OSAGE BEACH    CLEAR     59  54  82 CALM      29.96S

$$
MOZ051-052-059>065-301400-
...EAST CENTRAL MISSOURI...

CITY           SKY/WX    TMP DP  RH WIND       PRES   REMARKS
ST LOUIS INTL  MOSUNNY   66  58  75 CALM      29.97S
SPIRIT OF STL  SUNNY     56  55  97 CALM      29.96R
ST CHARLES     FOG       57  57 100 E5        29.97R VSB 1/4

$$
MOZ072>076-082>087-097>100-106>115-301400-
...SOUTH CENTRAL AND SOUTHEAST MISSOURI...

CITY           SKY/WX    TMP DP  RH WIND       PRES   REMARKS
CAPE GIRARDEAU MOSUNNY   57  57 100 CALM      29.97S FOG
FARMINGTON     SUNNY     54  54 100 CALM      30.00R
POPLAR BLUFF   SUNNY     60  55  83 CALM      29.96R HAZE
WEST PLAINS    SUNNY     58  54  86 CALM      30.00S

$$



USA.gov is the U.S. government's official web portal to all federal, state and local government web resources and services.